Weather History for KOWD - January, 2014

Change the Weather History Date:

Saturday, January 18, 2014

  Actual Average Record
Temperature  
Mean Temperature 42 °F -  
Max Temperature 55 °F 30 °F 62 °F (2006)
Min Temperature 28 °F 14 °F 0 °F (2003)
Degree Days  
Heating Degree Days 24    
Moisture  
Dew Point 33 °F    
Average Humidity 76    
Maximum Humidity 100    
Minimum Humidity 41    
Precipitation  
Precipitation 0.61 in - - ()
Sea Level Pressure  
Sea Level Pressure 29.73 in    
Wind  
Wind Speed 2 mph (NW)    
Max Wind Speed 8 mph    
Max Gust Speed -    
Visibility 4 miles    
Events Fog , Rain , Snow    
Averages and records for this station are not official NWS values.
T = Trace of Precipitation, MM = Missing Value Source: NWS Daily Summary

Daily Weather History Graph

Daily Weather History Graph

Search for Another Location

Airport or City:

Trip Planner

Search our weather history database for the weather conditions in past years. The results will help you decide how hot, cold, wet, or windy it might be!

Date:

Astronomy

Jan. 18, 2014 Rise Set
Actual Time 7:09 AM EST 4:41 PM EST
Civil Twilight 6:38 AM EST 5:12 PM EST
Nautical Twilight 6:04 AM EST 5:46 PM EST
Astronomical Twilight 5:30 AM EST 6:20 PM EST
Moon 7:24 PM EST (1/18) 8:04 AM EST (1/18)
Length of Visible Light 10h 33m
Length of Day
9h 32m
Waning Gibbous, 94% of the Moon is Illuminated
Jan 18
Waning Gibbous
Jan 24
Last Quarter
Jan 30
New
Feb 6
First Quarter
Feb 14
Full

Hourly Weather History & Observations

Time (EST) Temp. Windchill Dew Point Humidity Pressure Visibility Wind Dir Wind Speed Gust Speed Precip Events Conditions
12:53 AM 28.9 °F - 27.0 °F 92% 29.91 in 10.0 mi Calm Calm - N/A   Overcast
1:53 AM 30.0 °F - 27.0 °F 88% 29.91 in 10.0 mi Calm Calm - N/A   Overcast
2:53 AM 30.9 °F - 28.0 °F 89% 29.90 in 10.0 mi Calm Calm - N/A   Overcast
3:53 AM 30.9 °F - 28.9 °F 92% 29.88 in 9.0 mi Calm Calm - N/A   Overcast
4:53 AM 32.0 °F - 30.0 °F 92% 29.87 in 8.0 mi Calm Calm - N/A   Overcast
5:53 AM 33.1 °F - 30.9 °F 92% 29.84 in 6.0 mi Calm Calm - 0.00 in   Overcast
6:53 AM 33.1 °F - 32.0 °F 96% 29.83 in 5.0 mi Calm Calm - 0.00 in   Overcast
7:30 AM 33.1 °F 30.0 °F 32.0 °F 96% 29.80 in 2.5 mi East 3.5 mph - 0.01 in   Overcast
7:51 AM 33.8 °F - 33.8 °F 100% 29.80 in 4.0 mi Calm Calm - 0.01 in   Overcast
7:53 AM 33.1 °F 30.0 °F 32.0 °F 96% 29.81 in 4.0 mi SSE 3.5 mph - 0.01 in   Overcast
8:53 AM 36.0 °F - 35.1 °F 97% 29.80 in 4.0 mi Calm Calm - 0.01 in Rain Light Rain
9:03 AM 36.0 °F - 35.1 °F 97% 29.80 in 2.5 mi Calm Calm - 0.01 in Rain Light Rain
9:25 AM 36.0 °F - 35.1 °F 97% 29.79 in 3.0 mi Calm Calm - 0.02 in Rain Light Rain
9:33 AM 35.1 °F 32.2 °F 34.0 °F 96% 29.79 in 2.0 mi West 3.5 mph - 0.03 in Rain Light Rain
9:43 AM 36.0 °F - 35.1 °F 97% 29.79 in 1.8 mi Calm Calm - 0.04 in Rain Light Rain
9:51 AM 35.6 °F - 35.6 °F 100% 29.78 in 2.0 mi Calm Calm - 0.04 in Rain Light Rain
9:53 AM 36.0 °F - 35.1 °F 97% 29.78 in 2.0 mi Calm Calm - 0.05 in Rain Light Rain
10:06 AM 37.0 °F 31.0 °F 35.1 °F 93% 29.76 in 3.0 mi ENE 8.1 mph - 0.01 in Rain Rain
10:33 AM 46.9 °F - 35.1 °F 63% 29.76 in 5.0 mi East 5.8 mph - 0.02 in Rain Light Rain
10:40 AM 52.0 °F - 36.0 °F 54% 29.75 in 2.5 mi East 4.6 mph - 0.03 in Rain Rain
10:53 AM 46.9 °F - 36.0 °F 66% 29.75 in 2.5 mi ESE 3.5 mph - 0.07 in Rain Rain
11:02 AM 46.0 °F 44.8 °F 35.1 °F 66% 29.73 in 2.5 mi NE 3.5 mph - 0.04 in Rain Rain
11:10 AM 43.0 °F 40.3 °F 35.1 °F 74% 29.72 in 2.5 mi NNE 4.6 mph - 0.06 in Rain Light Rain
11:20 AM 42.1 °F 39.2 °F 35.1 °F 76% 29.71 in 2.5 mi NNE 4.6 mph - 0.08 in Rain Light Rain
11:53 AM 37.0 °F 34.5 °F 34.0 °F 89% 29.69 in 2.5 mi North 3.5 mph - 0.14 in Snow Light Snow
12:02 PM 37.0 °F 33.3 °F 33.1 °F 86% 29.67 in 1.5 mi North 4.6 mph - 0.02 in Snow Light Snow
12:26 PM 43.0 °F 41.3 °F 32.0 °F 65% 29.65 in 0.8 mi NW 3.5 mph - 0.07 in   Unknown
12:51 PM 37.4 °F 34.9 °F 32.0 °F 81% 29.64 in 0.2 mi NW 3.5 mph - 0.16 in Snow Heavy Snow
12:53 PM 37.0 °F - 32.0 °F 82% 29.64 in 0.2 mi Calm Calm - 0.16 in Snow Heavy Snow
1:09 PM 41.0 °F 39.0 °F 32.0 °F 70% 29.63 in 0.5 mi NW 3.5 mph - 0.04 in Rain Rain
1:21 PM 39.9 °F 37.8 °F 32.0 °F 73% 29.63 in 0.5 mi West 3.5 mph - 0.08 in Rain Light Rain
1:53 PM 36.0 °F 33.3 °F 32.0 °F 86% 29.63 in 0.5 mi NNW 3.5 mph - 0.12 in Fog , Snow Snow
2:28 PM 41.0 °F 38.0 °F 32.0 °F 70% 29.61 in 1.2 mi NW 4.6 mph - 0.04 in Rain Light Rain
2:53 PM 39.9 °F 37.8 °F 32.0 °F 73% 29.62 in 2.0 mi WNW 3.5 mph - 0.05 in   Unknown
3:03 PM 42.1 °F 40.2 °F 32.0 °F 67% 29.62 in 3.0 mi West 3.5 mph - 0.00 in Rain Light Rain
3:53 PM 44.1 °F 42.5 °F 32.0 °F 63% 29.62 in 7.0 mi NW 3.5 mph - 0.00 in Rain Light Rain
4:53 PM 42.1 °F 38.4 °F 32.0 °F 67% 29.62 in 10.0 mi NW 5.8 mph - 0.00 in   Overcast
5:53 PM 39.9 °F 35.1 °F 32.0 °F 73% 29.62 in 8.0 mi NW 6.9 mph - N/A   Overcast
6:53 PM 37.0 °F 31.6 °F 32.0 °F 82% 29.64 in 10.0 mi NNW 6.9 mph - N/A   Overcast
7:53 PM 55.0 °F - 32.0 °F 42% 29.65 in 6.0 mi WNW 4.6 mph - N/A   Haze
8:53 PM 44.1 °F 41.5 °F 32.0 °F 63% 29.66 in 3.0 mi NW 4.6 mph - N/A   Haze
9:02 PM 52.0 °F - 32.0 °F 47% 29.66 in 3.0 mi WNW 4.6 mph - N/A   Haze
9:15 PM 46.9 °F - 32.0 °F 56% 29.67 in 2.5 mi WNW 4.6 mph - N/A   Haze
9:42 PM 45.0 °F 43.5 °F 32.0 °F 60% 29.68 in 3.0 mi West 3.5 mph - N/A   Haze
9:53 PM 44.1 °F 41.5 °F 32.0 °F 63% 29.69 in 3.0 mi West 4.6 mph - N/A   Haze
10:35 PM 55.0 °F - 32.0 °F 42% 29.69 in 6.0 mi WNW 6.9 mph - N/A   Haze
10:53 PM 45.0 °F 41.8 °F 32.0 °F 60% 29.69 in 5.0 mi NW 5.8 mph - N/A   Haze
11:30 PM 51.1 °F - 32.0 °F 48% 29.69 in 2.5 mi NW 5.8 mph - N/A   Haze
11:49 PM 53.6 °F - 30.2 °F 41% 29.70 in 3.0 mi WNW 5.8 mph - N/A   Haze
11:53 PM 48.9 °F - 30.9 °F 50% 29.70 in 3.0 mi West 4.6 mph - N/A   Haze